"Time","Value","Approval","myLocation"
"2023-04-20 00:00",18.672736768018,"Approved","OW008"
"2023-04-20 01:00",18.6727381756757,"Approved","OW008"
"2023-04-20 02:00",18.6727395833333,"Approved","OW008"
"2023-04-20 03:00",18.673740990991,"Approved","OW008"
"2023-04-20 04:00",18.6787423986486,"Approved","OW008"
"2023-04-20 05:00",18.6767438063063,"Approved","OW008"
"2023-04-20 06:00",18.675745213964,"Approved","OW008"
"2023-04-20 07:00",18.6757466216216,"Approved","OW008"
"2023-04-20 08:00",18.6767480292793,"Approved","OW008"
"2023-04-20 09:00",18.6737494369369,"Approved","OW008"
"2023-04-20 10:00",18.6707508445946,"Approved","OW008"
"2023-04-20 11:00",18.6717522522523,"Approved","OW008"
"2023-04-20 12:00",18.6697536599099,"Approved","OW008"
"2023-04-20 13:00",18.6637550675676,"Approved","OW008"
"2023-04-20 14:00",18.6637564752252,"Approved","OW008"
"2023-04-20 15:00",18.6607578828829,"Approved","OW008"
"2023-04-20 16:00",18.6587592905405,"Approved","OW008"
"2023-04-20 17:00",18.6527606981982,"Approved","OW008"
"2023-04-20 18:00",18.6507621058559,"Approved","OW008"
"2023-04-20 19:00",18.6487635135135,"Approved","OW008"
"2023-04-20 20:00",18.6457649211712,"Approved","OW008"
"2023-04-20 21:00",18.6427663288288,"Approved","OW008"
"2023-04-20 22:00",18.6387677364865,"Approved","OW008"
"2023-04-20 23:00",18.6397691441441,"Approved","OW008"
"2023-04-21 00:00",18.6417705518018,"Approved","OW008"
"2023-04-21 01:00",18.6457719594595,"Approved","OW008"
"2023-04-21 02:00",18.6467733671171,"Approved","OW008"
"2023-04-21 03:00",18.6517747747748,"Approved","OW008"
"2023-04-21 04:00",18.6637761824324,"Approved","OW008"
"2023-04-21 05:00",18.6677775900901,"Approved","OW008"
"2023-04-21 06:00",18.6707789977477,"Approved","OW008"
"2023-04-21 07:00",18.6697804054054,"Approved","OW008"
"2023-04-21 08:00",18.6737818130631,"Approved","OW008"
"2023-04-21 09:00",18.6747832207207,"Approved","OW008"
"2023-04-21 10:00",18.6767846283784,"Approved","OW008"
"2023-04-21 11:00",18.677786036036,"Approved","OW008"
"2023-04-21 12:00",18.6767874436937,"Approved","OW008"
"2023-04-21 13:00",18.6767888513514,"Approved","OW008"
"2023-04-21 14:00",18.677790259009,"Approved","OW008"
"2023-04-21 15:00",18.6797916666667,"Approved","OW008"
"2023-04-21 16:00",18.6787930743243,"Approved","OW008"
"2023-04-21 17:00",18.675794481982,"Approved","OW008"
"2023-04-21 18:00",18.6737958896396,"Approved","OW008"
"2023-04-21 19:00",18.6717972972973,"Approved","OW008"
"2023-04-21 20:00",18.669798704955,"Approved","OW008"
"2023-04-21 21:00",18.6668001126126,"Approved","OW008"
"2023-04-21 22:00",18.6668015202703,"Approved","OW008"
"2023-04-21 23:00",18.6648029279279,"Approved","OW008"
"2023-04-22 00:00",18.6658043355856,"Approved","OW008"
"2023-04-22 01:00",18.6658057432432,"Approved","OW008"
"2023-04-22 02:00",18.6628071509009,"Approved","OW008"
"2023-04-22 03:00",18.6608085585586,"Approved","OW008"
"2023-04-22 04:00",18.6628099662162,"Approved","OW008"
"2023-04-22 05:00",18.6648113738739,"Approved","OW008"
"2023-04-22 06:00",18.6618127815315,"Approved","OW008"
"2023-04-22 07:00",18.6588141891892,"Approved","OW008"
"2023-04-22 08:00",18.6588155968468,"Approved","OW008"
"2023-04-22 09:00",18.6578170045045,"Approved","OW008"
"2023-04-22 10:00",18.6548184121622,"Approved","OW008"
"2023-04-22 11:00",18.6538198198198,"Approved","OW008"
"2023-04-22 12:00",18.6538212274775,"Approved","OW008"
"2023-04-22 13:00",18.6508226351351,"Approved","OW008"
"2023-04-22 14:00",18.6528240427928,"Approved","OW008"
"2023-04-22 15:00",18.6538254504504,"Approved","OW008"
"2023-04-22 16:00",18.6558268581081,"Approved","OW008"
"2023-04-22 17:00",18.6538282657658,"Approved","OW008"
"2023-04-22 18:00",18.6528296734234,"Approved","OW008"
"2023-04-22 19:00",18.6508310810811,"Approved","OW008"
"2023-04-22 20:00",18.6478324887387,"Approved","OW008"
"2023-04-22 21:00",18.6438338963964,"Approved","OW008"
"2023-04-22 22:00",18.6418353040541,"Approved","OW008"
"2023-04-22 23:00",18.6428367117117,"Approved","OW008"
"2023-04-23 00:00",18.6398381193694,"Approved","OW008"
"2023-04-23 01:00",18.638839527027,"Approved","OW008"
"2023-04-23 02:00",18.6368409346847,"Approved","OW008"
"2023-04-23 03:00",18.6388423423423,"Approved","OW008"
"2023-04-23 04:00",18.64384375,"Approved","OW008"
"2023-04-23 05:00",18.6438451576577,"Approved","OW008"
"2023-04-23 06:00",18.6418465653153,"Approved","OW008"
"2023-04-23 07:00",18.641847972973,"Approved","OW008"
"2023-04-23 08:00",18.6438493806306,"Approved","OW008"
"2023-04-23 09:00",18.6408507882883,"Approved","OW008"
"2023-04-23 10:00",18.6408521959459,"Approved","OW008"
"2023-04-23 11:00",18.6398536036036,"Approved","OW008"
"2023-04-23 12:00",18.6448550112613,"Approved","OW008"
"2023-04-23 13:00",18.6438564189189,"Approved","OW008"
"2023-04-23 14:00",18.6498578265766,"Approved","OW008"
"2023-04-23 15:00",18.6538592342342,"Approved","OW008"
"2023-04-23 16:00",18.6568606418919,"Approved","OW008"
"2023-04-23 17:00",18.6618620495496,"Approved","OW008"
"2023-04-23 18:00",18.6658634572072,"Approved","OW008"
"2023-04-23 19:00",18.6678648648649,"Approved","OW008"
"2023-04-23 20:00",18.6668662725225,"Approved","OW008"
"2023-04-23 21:00",18.6658676801802,"Approved","OW008"
"2023-04-23 22:00",18.6678690878378,"Approved","OW008"
"2023-04-23 23:00",18.6658704954955,"Approved","OW008"
"2023-04-24 00:00",18.6658719031532,"Approved","OW008"
"2023-04-24 01:00",18.6598733108108,"Approved","OW008"
"2023-04-24 02:00",18.6568747184685,"Approved","OW008"
"2023-04-24 03:00",18.6538761261261,"Approved","OW008"
"2023-04-24 04:00",18.6578775337838,"Approved","OW008"
"2023-04-24 05:00",18.6588789414414,"Approved","OW008"
"2023-04-24 06:00",18.6588803490991,"Approved","OW008"
"2023-04-24 07:00",18.6608817567568,"Approved","OW008"
"2023-04-24 08:00",18.6638831644144,"Approved","OW008"
"2023-04-24 09:00",18.6648845720721,"Approved","OW008"
"2023-04-24 10:00",18.6678859797297,"Approved","OW008"
"2023-04-24 11:00",18.6718873873874,"Approved","OW008"
"2023-04-24 12:00",18.671888795045,"Approved","OW008"
"2023-04-24 13:00",18.6738902027027,"Approved","OW008"
"2023-04-24 14:00",18.6778916103604,"Approved","OW008"
"2023-04-24 15:00",18.680893018018,"Approved","OW008"
"2023-04-24 16:00",18.6798944256757,"Approved","OW008"
"2023-04-24 17:00",18.6838958333333,"Approved","OW008"
"2023-04-24 18:00",18.683897240991,"Approved","OW008"
"2023-04-24 19:00",18.6798986486486,"Approved","OW008"
"2023-04-24 20:00",18.6759000563063,"Approved","OW008"
"2023-04-24 21:00",18.673901463964,"Approved","OW008"
"2023-04-24 22:00",18.6749028716216,"Approved","OW008"
"2023-04-24 23:00",18.6729042792793,"Approved","OW008"
"2023-04-25 00:00",18.6699056869369,"Approved","OW008"
"2023-04-25 01:00",18.6709070945946,"Approved","OW008"
"2023-04-25 02:00",18.6709085022523,"Approved","OW008"
"2023-04-25 03:00",18.6729099099099,"Approved","OW008"
"2023-04-25 04:00",18.6759113175676,"Approved","OW008"
"2023-04-25 05:00",18.6769127252252,"Approved","OW008"
"2023-04-25 06:00",18.6699141328829,"Approved","OW008"
"2023-04-25 07:00",18.6729155405405,"Approved","OW008"
"2023-04-25 08:00",18.6709169481982,"Approved","OW008"
"2023-04-25 09:00",18.6699183558559,"Approved","OW008"
"2023-04-25 10:00",18.6709197635135,"Approved","OW008"
"2023-04-25 11:00",18.6719211711712,"Approved","OW008"
"2023-04-25 12:00",18.6729225788288,"Approved","OW008"
"2023-04-25 13:00",18.6729239864865,"Approved","OW008"
"2023-04-25 14:00",18.6699253941441,"Approved","OW008"
"2023-04-25 15:00",18.6719268018018,"Approved","OW008"
"2023-04-25 16:00",18.6709282094595,"Approved","OW008"
"2023-04-25 17:00",18.6679296171171,"Approved","OW008"
"2023-04-25 18:00",18.6679310247748,"Approved","OW008"
"2023-04-25 19:00",18.6669324324324,"Approved","OW008"
"2023-04-25 20:00",18.6639338400901,"Approved","OW008"
"2023-04-25 21:00",18.6639352477477,"Approved","OW008"
"2023-04-25 22:00",18.6649366554054,"Approved","OW008"
"2023-04-25 23:00",18.6599380630631,"Approved","OW008"
"2023-04-26 00:00",18.6589394707207,"Approved","OW008"
"2023-04-26 01:00",18.6589408783784,"Approved","OW008"
"2023-04-26 02:00",18.661942286036,"Approved","OW008"
"2023-04-26 03:00",18.6629436936937,"Approved","OW008"
"2023-04-26 04:00",18.6679451013514,"Approved","OW008"
"2023-04-26 05:00",18.669946509009,"Approved","OW008"
"2023-04-26 06:00",18.6639479166667,"Approved","OW008"
"2023-04-26 07:00",18.6669493243243,"Approved","OW008"
"2023-04-26 08:00",18.667950731982,"Approved","OW008"
"2023-04-26 09:00",18.6619521396396,"Approved","OW008"
"2023-04-26 10:00",18.6619535472973,"Approved","OW008"
"2023-04-26 11:00",18.659954954955,"Approved","OW008"
"2023-04-26 12:00",18.6599563626126,"Approved","OW008"
"2023-04-26 13:00",18.6629577702703,"Approved","OW008"
"2023-04-26 14:00",18.6689591779279,"Approved","OW008"
"2023-04-26 15:00",18.6639605855856,"Approved","OW008"
"2023-04-26 16:00",18.6619619932432,"Approved","OW008"
"2023-04-26 17:00",18.6689634009009,"Approved","OW008"
"2023-04-26 18:00",18.6699648085586,"Approved","OW008"
"2023-04-26 19:00",18.6699662162162,"Approved","OW008"
"2023-04-26 20:00",18.6619676238739,"Approved","OW008"
"2023-04-26 21:00",18.6619690315315,"Approved","OW008"
"2023-04-26 22:00",18.6629704391892,"Approved","OW008"
"2023-04-26 23:00",18.6609718468468,"Approved","OW008"
"2023-04-27 00:00",18.6599732545045,"Approved","OW008"
"2023-04-27 01:00",18.6609746621622,"Approved","OW008"
"2023-04-27 02:00",18.6629760698198,"Approved","OW008"
"2023-04-27 03:00",18.6669774774775,"Approved","OW008"
"2023-04-27 04:00",18.6689788851351,"Approved","OW008"
"2023-04-27 05:00",18.6709802927928,"Approved","OW008"
"2023-04-27 06:00",18.6689817004504,"Approved","OW008"
"2023-04-27 07:00",18.6729831081081,"Approved","OW008"
"2023-04-27 08:00",18.6719845157658,"Approved","OW008"
"2023-04-27 09:00",18.6719859234234,"Approved","OW008"
"2023-04-27 10:00",18.6709873310811,"Approved","OW008"
"2023-04-27 11:00",18.6729887387387,"Approved","OW008"
"2023-04-27 12:00",18.6719901463964,"Approved","OW008"
"2023-04-27 13:00",18.6739915540541,"Approved","OW008"
"2023-04-27 14:00",18.6789929617117,"Approved","OW008"
"2023-04-27 15:00",18.6799943693694,"Approved","OW008"
"2023-04-27 16:00",18.674995777027,"Approved","OW008"
"2023-04-27 17:00",18.6719971846847,"Approved","OW008"
"2023-04-27 18:00",18.6679985923423,"Approved","OW008"
"2023-04-27 19:00",18.655,"Approved","OW008"
"2023-04-27 20:00",18.6600018575851,"Approved","OW008"
"2023-04-27 21:00",18.6560037151703,"Approved","OW008"
"2023-04-27 22:00",18.6540055727554,"Approved","OW008"
"2023-04-27 23:00",18.6550074303406,"Approved","OW008"
"2023-04-28 00:00",18.6570092879257,"Approved","OW008"
"2023-04-28 01:00",18.6580111455108,"Approved","OW008"
"2023-04-28 02:00",18.657013003096,"Approved","OW008"
"2023-04-28 03:00",18.6570148606811,"Approved","OW008"
"2023-04-28 04:00",18.6600167182663,"Approved","OW008"
"2023-04-28 05:00",18.6610185758514,"Approved","OW008"
"2023-04-28 06:00",18.6620204334365,"Approved","OW008"
"2023-04-28 07:00",18.6590222910217,"Approved","OW008"
"2023-04-28 08:00",18.6620241486068,"Approved","OW008"
"2023-04-28 09:00",18.663026006192,"Approved","OW008"
"2023-04-28 10:00",18.6640278637771,"Approved","OW008"
"2023-04-28 11:00",18.6630297213622,"Approved","OW008"
"2023-04-28 12:00",18.6600315789474,"Approved","OW008"
"2023-04-28 13:00",18.6630334365325,"Approved","OW008"
"2023-04-28 14:00",18.6630352941176,"Approved","OW008"
"2023-04-28 15:00",18.6630371517028,"Approved","OW008"
"2023-04-28 16:00",18.6590390092879,"Approved","OW008"
"2023-04-28 17:00",18.6570408668731,"Approved","OW008"
"2023-04-28 18:00",18.6540427244582,"Approved","OW008"
"2023-04-28 19:00",18.6510445820433,"Approved","OW008"
"2023-04-28 20:00",18.6470464396285,"Approved","OW008"
"2023-04-28 21:00",18.6450482972136,"Approved","OW008"
"2023-04-28 22:00",18.6440501547988,"Approved","OW008"
"2023-04-28 23:00",18.6430520123839,"Approved","OW008"
"2023-04-29 00:00",18.645053869969,"Approved","OW008"
"2023-04-29 01:00",18.6460557275542,"Approved","OW008"
"2023-04-29 02:00",18.6470575851393,"Approved","OW008"
"2023-04-29 03:00",18.6520594427245,"Approved","OW008"
"2023-04-29 04:00",18.6560613003096,"Approved","OW008"
"2023-04-29 05:00",18.6640631578947,"Approved","OW008"
"2023-04-29 06:00",18.6680650154799,"Approved","OW008"
"2023-04-29 07:00",18.667066873065,"Approved","OW008"
"2023-04-29 08:00",18.6680687306502,"Approved","OW008"
"2023-04-29 09:00",18.6670705882353,"Approved","OW008"
"2023-04-29 10:00",18.6670724458204,"Approved","OW008"
"2023-04-29 11:00",18.6670743034056,"Approved","OW008"
"2023-04-29 12:00",18.6680761609907,"Approved","OW008"
"2023-04-29 13:00",18.6710780185759,"Approved","OW008"
"2023-04-29 14:00",18.674079876161,"Approved","OW008"
"2023-04-29 15:00",18.6740817337461,"Approved","OW008"
"2023-04-29 16:00",18.6710835913313,"Approved","OW008"
"2023-04-29 17:00",18.6700854489164,"Approved","OW008"
"2023-04-29 18:00",18.6670873065015,"Approved","OW008"
"2023-04-29 19:00",18.6630891640867,"Approved","OW008"
"2023-04-29 20:00",18.6640910216718,"Approved","OW008"
"2023-04-29 21:00",18.661092879257,"Approved","OW008"
"2023-04-29 22:00",18.6600947368421,"Approved","OW008"
"2023-04-29 23:00",18.6590965944272,"Approved","OW008"
"2023-04-30 00:00",18.6600984520124,"Approved","OW008"
"2023-04-30 01:00",18.6561003095975,"Approved","OW008"
"2023-04-30 02:00",18.6541021671827,"Approved","OW008"
"2023-04-30 03:00",18.6591040247678,"Approved","OW008"
"2023-04-30 04:00",18.6621058823529,"Approved","OW008"
"2023-04-30 05:00",18.6651077399381,"Approved","OW008"
"2023-04-30 06:00",18.6671095975232,"Approved","OW008"
"2023-04-30 07:00",18.6651114551084,"Approved","OW008"
"2023-04-30 08:00",18.6641133126935,"Approved","OW008"
"2023-04-30 09:00",18.6641151702786,"Approved","OW008"
"2023-04-30 10:00",18.6641170278638,"Approved","OW008"
"2023-04-30 11:00",18.6651188854489,"Approved","OW008"
"2023-04-30 12:00",18.6671207430341,"Approved","OW008"
"2023-04-30 13:00",18.6671226006192,"Approved","OW008"
"2023-04-30 14:00",18.6701244582043,"Approved","OW008"
"2023-04-30 15:00",18.6701263157895,"Approved","OW008"
"2023-04-30 16:00",18.6701281733746,"Approved","OW008"
"2023-04-30 17:00",18.6701300309598,"Approved","OW008"
"2023-04-30 18:00",18.6741318885449,"Approved","OW008"
"2023-04-30 19:00",18.66913374613,"Approved","OW008"
"2023-04-30 20:00",18.6671356037152,"Approved","OW008"
"2023-04-30 21:00",18.6641374613003,"Approved","OW008"
"2023-04-30 22:00",18.6641393188855,"Approved","OW008"
"2023-04-30 23:00",18.6661411764706,"Approved","OW008"
"2023-05-01 00:00",18.6661430340557,"Approved","OW008"
"2023-05-01 01:00",18.6661448916409,"Approved","OW008"
"2023-05-01 02:00",18.666146749226,"Approved","OW008"
"2023-05-01 03:00",18.6661486068111,"Approved","OW008"
"2023-05-01 04:00",18.6661504643963,"Approved","OW008"
"2023-05-01 05:00",18.6681523219814,"Approved","OW008"
"2023-05-01 06:00",18.6651541795666,"Approved","OW008"
"2023-05-01 07:00",18.6681560371517,"Approved","OW008"
"2023-05-01 08:00",18.6671578947368,"Approved","OW008"
"2023-05-01 09:00",18.665159752322,"Approved","OW008"
"2023-05-01 10:00",18.6631616099071,"Approved","OW008"
"2023-05-01 11:00",18.6651634674923,"Approved","OW008"
"2023-05-01 12:00",18.6631653250774,"Approved","OW008"
"2023-05-01 13:00",18.6631671826625,"Approved","OW008"
"2023-05-01 14:00",18.6641690402477,"Approved","OW008"
"2023-05-01 15:00",18.6651708978328,"Approved","OW008"
"2023-05-01 16:00",18.666172755418,"Approved","OW008"
"2023-05-01 17:00",18.6681746130031,"Approved","OW008"
"2023-05-01 18:00",18.6631764705882,"Approved","OW008"
"2023-05-01 19:00",18.6641783281734,"Approved","OW008"
"2023-05-01 20:00",18.6611801857585,"Approved","OW008"
"2023-05-01 21:00",18.6601820433437,"Approved","OW008"
"2023-05-01 22:00",18.6611839009288,"Approved","OW008"
"2023-05-01 23:00",18.6631857585139,"Approved","OW008"
"2023-05-02 00:00",18.6621876160991,"Approved","OW008"
"2023-05-02 01:00",18.6631894736842,"Approved","OW008"
"2023-05-02 02:00",18.6641913312694,"Approved","OW008"
"2023-05-02 03:00",18.6631931888545,"Approved","OW008"
"2023-05-02 04:00",18.6621950464396,"Approved","OW008"
"2023-05-02 05:00",18.6621969040248,"Approved","OW008"
"2023-05-02 06:00",18.6581987616099,"Approved","OW008"
"2023-05-02 07:00",18.664200619195,"Approved","OW008"
"2023-05-02 08:00",18.6712024767802,"Approved","OW008"
"2023-05-02 09:00",18.6672043343653,"Approved","OW008"
"2023-05-02 10:00",18.6662061919505,"Approved","OW008"
"2023-05-02 11:00",18.6732080495356,"Approved","OW008"
"2023-05-02 12:00",18.6642099071207,"Approved","OW008"
"2023-05-02 13:00",18.6562117647059,"Approved","OW008"
"2023-05-02 14:00",18.652213622291,"Approved","OW008"
"2023-05-02 15:00",18.6552154798762,"Approved","OW008"
"2023-05-02 16:00",18.6562173374613,"Approved","OW008"
"2023-05-02 17:00",18.6542191950464,"Approved","OW008"
"2023-05-02 18:00",18.6532210526316,"Approved","OW008"
"2023-05-02 19:00",18.6512229102167,"Approved","OW008"
"2023-05-02 20:00",18.6512247678019,"Approved","OW008"
"2023-05-02 21:00",18.649226625387,"Approved","OW008"
"2023-05-02 22:00",18.6502284829721,"Approved","OW008"
"2023-05-02 23:00",18.6532303405573,"Approved","OW008"
"2023-05-03 00:00",18.6602321981424,"Approved","OW008"
"2023-05-03 01:00",18.6662340557276,"Approved","OW008"
"2023-05-03 02:00",18.6692359133127,"Approved","OW008"
"2023-05-03 03:00",18.6722377708978,"Approved","OW008"
"2023-05-03 04:00",18.681239628483,"Approved","OW008"
"2023-05-03 05:00",18.6862414860681,"Approved","OW008"
"2023-05-03 06:00",18.6902433436533,"Approved","OW008"
"2023-05-03 07:00",18.6892452012384,"Approved","OW008"
"2023-05-03 08:00",18.6862470588235,"Approved","OW008"
"2023-05-03 09:00",18.6842489164087,"Approved","OW008"
"2023-05-03 10:00",18.6812507739938,"Approved","OW008"
"2023-05-03 11:00",18.6782526315789,"Approved","OW008"
"2023-05-03 12:00",18.6772544891641,"Approved","OW008"
"2023-05-03 13:00",18.6722563467492,"Approved","OW008"
"2023-05-03 14:00",18.6702582043344,"Approved","OW008"
"2023-05-03 15:00",18.6692600619195,"Approved","OW008"
"2023-05-03 16:00",18.6632619195046,"Approved","OW008"
"2023-05-03 17:00",18.6612637770898,"Approved","OW008"
"2023-05-03 18:00",18.6572656346749,"Approved","OW008"
"2023-05-03 19:00",18.6552674922601,"Approved","OW008"
"2023-05-03 20:00",18.6522693498452,"Approved","OW008"
"2023-05-03 21:00",18.6522712074303,"Approved","OW008"
"2023-05-03 22:00",18.6502730650155,"Approved","OW008"
"2023-05-03 23:00",18.6502749226006,"Approved","OW008"
"2023-05-04 00:00",18.6492767801858,"Approved","OW008"
"2023-05-04 01:00",18.6492786377709,"Approved","OW008"
"2023-05-04 02:00",18.657280495356,"Approved","OW008"
"2023-05-04 03:00",18.6652823529412,"Approved","OW008"
"2023-05-04 04:00",18.6732842105263,"Approved","OW008"
"2023-05-04 05:00",18.6782860681115,"Approved","OW008"
"2023-05-04 06:00",18.6822879256966,"Approved","OW008"
"2023-05-04 07:00",18.6852897832817,"Approved","OW008"
"2023-05-04 08:00",18.6862916408669,"Approved","OW008"
"2023-05-04 09:00",18.682293498452,"Approved","OW008"
"2023-05-04 10:00",18.6822953560372,"Approved","OW008"
"2023-05-04 11:00",18.6832972136223,"Approved","OW008"
"2023-05-04 12:00",18.6752990712074,"Approved","OW008"
"2023-05-04 13:00",18.6643009287926,"Approved","OW008"
"2023-05-04 14:00",18.6603027863777,"Approved","OW008"
"2023-05-04 15:00",18.6593046439628,"Approved","OW008"
"2023-05-04 16:00",18.659306501548,"Approved","OW008"
"2023-05-04 17:00",18.6653083591331,"Approved","OW008"
"2023-05-04 18:00",18.6683102167183,"Approved","OW008"
"2023-05-04 19:00",18.6683120743034,"Approved","OW008"
"2023-05-04 20:00",18.6603139318885,"Approved","OW008"
"2023-05-04 21:00",18.6553157894737,"Approved","OW008"
"2023-05-04 22:00",18.6533176470588,"Approved","OW008"
"2023-05-04 23:00",18.655319504644,"Approved","OW008"
"2023-05-05 00:00",18.6623213622291,"Approved","OW008"
"2023-05-05 01:00",18.6683232198142,"Approved","OW008"
"2023-05-05 02:00",18.6733250773994,"Approved","OW008"
"2023-05-05 03:00",18.6773269349845,"Approved","OW008"
"2023-05-05 04:00",18.6773287925697,"Approved","OW008"
"2023-05-05 05:00",18.6843306501548,"Approved","OW008"
"2023-05-05 06:00",18.6843325077399,"Approved","OW008"
"2023-05-05 07:00",18.6813343653251,"Approved","OW008"
"2023-05-05 08:00",18.6763362229102,"Approved","OW008"
"2023-05-05 09:00",18.6703380804954,"Approved","OW008"
"2023-05-05 10:00",18.6703399380805,"Approved","OW008"
"2023-05-05 11:00",18.6713417956656,"Approved","OW008"
"2023-05-05 12:00",18.6763436532508,"Approved","OW008"
"2023-05-05 13:00",18.6733455108359,"Approved","OW008"
"2023-05-05 14:00",18.6753473684211,"Approved","OW008"
"2023-05-05 15:00",18.6773492260062,"Approved","OW008"
"2023-05-05 16:00",18.6783510835913,"Approved","OW008"
"2023-05-05 17:00",18.6773529411765,"Approved","OW008"
"2023-05-05 18:00",18.6793547987616,"Approved","OW008"
"2023-05-05 19:00",18.6793566563467,"Approved","OW008"
"2023-05-05 20:00",18.6803585139319,"Approved","OW008"
"2023-05-05 21:00",18.682360371517,"Approved","OW008"
"2023-05-05 22:00",18.6823622291022,"Approved","OW008"
"2023-05-05 23:00",18.6813640866873,"Approved","OW008"
"2023-05-06 00:00",18.6803659442724,"Approved","OW008"
"2023-05-06 01:00",18.6823678018576,"Approved","OW008"
"2023-05-06 02:00",18.6823696594427,"Approved","OW008"
"2023-05-06 03:00",18.6813715170279,"Approved","OW008"
"2023-05-06 04:00",18.682373374613,"Approved","OW008"
"2023-05-06 05:00",18.6793752321981,"Approved","OW008"
"2023-05-06 06:00",18.6773770897833,"Approved","OW008"
"2023-05-06 07:00",18.6763789473684,"Approved","OW008"
"2023-05-06 08:00",18.6743808049536,"Approved","OW008"
"2023-05-06 09:00",18.6763826625387,"Approved","OW008"
"2023-05-06 10:00",18.6753845201238,"Approved","OW008"
"2023-05-06 11:00",18.674386377709,"Approved","OW008"
"2023-05-06 12:00",18.6753882352941,"Approved","OW008"
"2023-05-06 13:00",18.6743900928793,"Approved","OW008"
"2023-05-06 14:00",18.6743919504644,"Approved","OW008"
"2023-05-06 15:00",18.6773938080495,"Approved","OW008"
"2023-05-06 16:00",18.6773956656347,"Approved","OW008"
"2023-05-06 17:00",18.6773975232198,"Approved","OW008"
"2023-05-06 18:00",18.679399380805,"Approved","OW008"
"2023-05-06 19:00",18.6794012383901,"Approved","OW008"
"2023-05-06 20:00",18.6774030959752,"Approved","OW008"
"2023-05-06 21:00",18.6784049535604,"Approved","OW008"
"2023-05-06 22:00",18.6804068111455,"Approved","OW008"
"2023-05-06 23:00",18.6824086687306,"Approved","OW008"
"2023-05-07 00:00",18.6824105263158,"Approved","OW008"
"2023-05-07 01:00",18.6814123839009,"Approved","OW008"
"2023-05-07 02:00",18.6804142414861,"Approved","OW008"
"2023-05-07 03:00",18.6804160990712,"Approved","OW008"
"2023-05-07 04:00",18.6814179566563,"Approved","OW008"
"2023-05-07 05:00",18.6794198142415,"Approved","OW008"
"2023-05-07 06:00",18.6794216718266,"Approved","OW008"
"2023-05-07 07:00",18.6804235294118,"Approved","OW008"
"2023-05-07 08:00",18.6794253869969,"Approved","OW008"
"2023-05-07 09:00",18.680427244582,"Approved","OW008"
"2023-05-07 10:00",18.6814291021672,"Approved","OW008"
"2023-05-07 11:00",18.6814309597523,"Approved","OW008"
"2023-05-07 12:00",18.6814328173375,"Approved","OW008"
"2023-05-07 13:00",18.6814346749226,"Approved","OW008"
"2023-05-07 14:00",18.6844365325077,"Approved","OW008"
"2023-05-07 15:00",18.6864383900929,"Approved","OW008"
"2023-05-07 16:00",18.685440247678,"Approved","OW008"
"2023-05-07 17:00",18.6854421052632,"Approved","OW008"
"2023-05-07 18:00",18.6844439628483,"Approved","OW008"
"2023-05-07 19:00",18.6844458204334,"Approved","OW008"